TimeMDT,TemperatureF,Dew PointF,Humidity,Sea Level PressureIn,VisibilityMPH,Wind Direction,Wind SpeedMPH,Gust SpeedMPH,PrecipitationIn,Events,Conditions,WindDirDegrees,DateUTC
12:02 AM,28.4,24.8,86,29.90,10.0,NE,19.6,-,N/A,,Overcast,40,2013-03-23 06:02:00
12:53 AM,28.9,25.0,85,29.99,10.0,NE,17.3,-,N/A,,Overcast,40,2013-03-23 06:53:00
1:53 AM,27.0,21.9,81,30.00,7.0,NNE,18.4,28.8,0.00,Snow,Light Snow,30,2013-03-23 07:53:00
2:19 AM,26.6,21.2,80,29.96,6.0,NNE,20.7,28.8,0.00,Snow,Light Snow,20,2013-03-23 08:19:00
2:53 AM,24.1,19.9,84,30.00,10.0,NNE,21.9,28.8,0.00,,Overcast,20,2013-03-23 08:53:00
3:03 AM,23.0,19.4,86,29.95,9.0,NNE,20.7,27.6,0.00,,Overcast,20,2013-03-23 09:03:00
3:09 AM,23.0,19.4,86,29.95,10.0,NNE,23.0,29.9,0.00,,Overcast,20,2013-03-23 09:09:00
3:21 AM,21.2,19.4,93,29.95,10.0,NNE,23.0,31.1,0.00,,Overcast,20,2013-03-23 09:21:00
3:53 AM,21.9,18.0,85,30.03,8.0,North,19.6,26.5,0.00,,Overcast,10,2013-03-23 09:53:00
4:40 AM,19.4,15.8,86,29.98,1.0,North,20.7,28.8,0.00,Snow,Light Snow,10,2013-03-23 10:40:00
4:50 AM,19.4,15.8,86,29.98,1.0,North,18.4,-,0.00,Snow,Light Snow,10,2013-03-23 10:50:00
4:53 AM,19.9,16.0,85,30.06,1.0,North,19.6,-,0.00,Snow,Light Snow,10,2013-03-23 10:53:00
5:17 AM,19.4,15.8,86,29.99,1.2,NNE,23.0,27.6,0.00,Snow,Light Snow,20,2013-03-23 11:17:00
5:33 AM,17.6,15.8,93,29.99,1.8,North,19.6,-,0.00,Snow,Light Snow,10,2013-03-23 11:33:00
5:42 AM,17.6,14.0,86,30.00,2.5,North,20.7,27.6,0.00,Snow,Light Snow,10,2013-03-23 11:42:00
5:53 AM,18.0,14.0,84,30.10,2.5,North,23.0,29.9,0.00,Snow,Light Snow,10,2013-03-23 11:53:00
6:01 AM,17.6,12.2,79,30.01,3.0,NNE,23.0,29.9,0.00,Snow,Light Snow,20,2013-03-23 12:01:00
6:53 AM,17.1,12.0,81,30.12,7.0,North,19.6,25.3,0.00,Snow,Light Snow,10,2013-03-23 12:53:00
7:53 AM,16.0,9.0,74,30.16,9.0,NNE,24.2,32.2,0.00,,Overcast,20,2013-03-23 13:53:00
8:53 AM,17.1,10.0,74,30.18,10.0,NNE,19.6,29.9,0.00,,Overcast,20,2013-03-23 14:53:00
9:53 AM,19.9,10.9,68,30.17,10.0,NNE,24.2,32.2,N/A,,Mostly Cloudy,20,2013-03-23 15:53:00
10:53 AM,21.9,12.9,68,30.17,10.0,North,27.6,33.4,N/A,,Mostly Cloudy,10,2013-03-23 16:53:00
11:11 AM,23.0,14.0,68,30.06,10.0,NNE,25.3,33.4,N/A,,Mostly Cloudy,20,2013-03-23 17:11:00
11:53 AM,25.0,15.1,66,30.16,10.0,North,23.0,31.1,N/A,,Mostly Cloudy,10,2013-03-23 17:53:00
12:53 PM,27.0,14.0,58,30.16,10.0,North,21.9,29.9,N/A,,Scattered Clouds,10,2013-03-23 18:53:00
1:53 PM,28.9,14.0,54,30.16,10.0,North,19.6,27.6,N/A,,Scattered Clouds,360,2013-03-23 19:53:00
2:53 PM,28.9,9.0,43,30.17,10.0,North,16.1,23.0,N/A,,Scattered Clouds,350,2013-03-23 20:53:00
3:53 PM,28.9,9.0,43,30.18,10.0,North,12.7,23.0,N/A,,Mostly Cloudy,350,2013-03-23 21:53:00
4:53 PM,28.0,10.9,49,30.20,10.0,North,12.7,-,N/A,,Scattered Clouds,10,2013-03-23 22:53:00
5:53 PM,27.0,12.0,53,30.22,10.0,North,9.2,-,N/A,,Mostly Cloudy,360,2013-03-23 23:53:00
6:53 PM,24.1,12.9,62,30.24,10.0,NE,11.5,-,N/A,,Mostly Cloudy,40,2013-03-24 00:53:00
7:53 PM,21.0,12.9,71,30.27,10.0,NNE,11.5,-,N/A,,Overcast,20,2013-03-24 01:53:00
8:29 PM,19.4,12.2,74,30.12,10.0,NNE,6.9,-,N/A,,Mostly Cloudy,20,2013-03-24 02:29:00
8:53 PM,18.0,10.9,74,30.29,10.0,North,6.9,-,N/A,,Mostly Cloudy,10,2013-03-24 02:53:00
9:17 PM,17.6,10.4,73,30.14,10.0,North,5.8,-,N/A,,Scattered Clouds,10,2013-03-24 03:17:00
9:30 PM,17.6,10.4,73,30.15,10.0,North,5.8,-,N/A,,Mostly Cloudy,10,2013-03-24 03:30:00
9:53 PM,19.0,12.9,77,30.30,10.0,North,4.6,-,N/A,,Overcast,360,2013-03-24 03:53:00
10:53 PM,19.9,12.9,74,30.29,10.0,NNE,9.2,-,N/A,,Overcast,30,2013-03-24 04:53:00
11:53 PM,18.0,12.0,78,30.28,10.0,NE,8.1,-,N/A,,Mostly Cloudy,50,2013-03-24 05:53:00